{"data":{"norad_id":60601,"epoch":"2026-09-21T20:20:31.980768Z","epoch_age_seconds":72030,"freshness":"FRESH","line1":"1 60601U 24150U   26264.84759237  .00000390  00000+0  22679-4 0  9991","line2":"2 60601  53.1598 111.6638 0000988  83.6868 276.4247 15.34390282118050","mean_motion":15.34390282,"eccentricity":9.88e-5,"inclination_deg":53.1598,"raan_deg":111.6638,"arg_perigee_deg":83.6868,"mean_anomaly_deg":276.4247,"bstar":2.2679e-5,"rev_number":11805,"period_min":93.848352462389,"perigee_km":462.05624643404,"apogee_km":463.40800217301,"semimajor_km":6840.8691243035,"source":"CELESTRAK","updated_at":"2026-09-22T09:00:49.275465Z"}}